Location: Kershaw
(34.5481°N, 80.5823°W)
Time: 15:10:29
(UTC+00:00)

Vanguard 1 Rocket - Pass Details

Date: 08 October 2022
Orbit: 650 x 4225 km, 34.3° (Epoch: 08 December)

Event Time Altitude Azimuth Distance (km) Brightness Sun altitude
Rises 06:43:04 0° 282° (WNW) 5,430 - -54.2°
Reaches altitude 10° 06:48:30 10° 268° (W) 3,728 - -53.4°
Maximum altitude 06:54:05 18° 228° (SW) 2,451 - -52.6°
Drops below altitude 10° 06:58:09 10° 185° (S) 2,565 - -52.0°
Sets 07:00:59 0° 165° (SSE) 3,233 - -51.6°
